Regional Weather Roundup
Issued by NWS Tiyan, Guam

Home | Current Version | Previous Version | Text Only | Print | Product List | Glossary On
Versions: 1 2 3 4 5 6 7 8 9 10 11 12 13 14 15 16 17 18 19 20 21 22 23 24 25 26 27 28 29 30 31 32 33 34 35 36 37 38 39 40 41 42 43 44 45 46 47 48 49 50
000
ASGM40 PGUM 010612
RWRGUM
WEATHER ROUNDUP FOR THE MARIANAS
NATIONAL WEATHER SERVICE TIYAN GU
400 PM CHST FRI AUG 01 2014

GUZ001>004-010700-
MARIANA ISLANDS-

CITY           SKY/WX    TMP DP  RH WIND       PRES   REMARKS
GUAM AIRPORT   PTSUNNY   82  79  89 SE6       29.82S HX  93
ANDERSEN AFB   LGT RAIN  81  77  89 SE6       29.82S
ROTA AIRPORT   PTSUNNY   82  77  83 SE10      29.82F HX  91
TINIAN AP      PTSUNNY   84  77  79 SE7       29.80S HX  94
SAIPAN AP      MOSUNNY   86  77  74 SE8       29.81F HX  97

$$



USA.gov is the U.S. government's official web portal to all federal, state and local government web resources and services.